Home > Weather > Eilat > Past weeks

Flag for Israel Past Weather in Eilat, Israel — Yesterday and Last 2 Weeks

Now
91 °F

Clear.


Feels Like: 87 °F
Forecast: 74 / 102 °F
Wind: 14 mph from North

Location: Eilat

Current Time: Jun 1, 2016 at 12:51:57 AM

Latest Report: May 31, 2016 at 9:50 PM


Visibility: 10 mi

Pressure: 29.89 "Hg

Humidity: 16%

Dew Point: 39 °F

Location of EilatLocation

Past Weather in Eilat — Graph

°F

Eilat Temperature Yesterday

Maximum temperature yesterday: 99 °F (at 4:50 PM)
Minimum temperature yesterday: 72 °F (at 5:50 AM)
Average temperature yesterday: 89 °F

High & Low Weather Summary for the Past Weeks

 TemperatureHumidityPressure
High104 °F (May 17, 2:50 PM)57% (May 29, 6:50 AM)29.98 "Hg (May 29, 6:50 AM)
Low68 °F (May 20, 5:50 AM)9% (May 22, 7:50 PM)29.62 "Hg (May 26, 3:50 PM)
Average86 °F27%29.86 "Hg
* Reported May 16 9:50 PM — May 31 9:50 PM, Eilat, Weather by CustomWeather, © 2016

Note: Actual official high and low records may vary slightly from our data, if they occured in-between our weather recording intervals... More about our weather records

Advertising

Eilat Weather History for the Previous 24 Hours

Scroll right to see more
 ConditionsComfort  
Time TempWeatherWind HumidityBarometerVisibility
9:50 PM
Tue, May 31
91 °FClear.14 mph16%29.89 "Hg10 mi
8:50 PM93 °FClear.13 mph14%29.89 "Hg10 mi
7:50 PM93 °FSunny.16 mph13%29.86 "Hg10 mi
6:50 PM97 °FSunny.20 mph12%29.86 "Hg10 mi
5:50 PM97 °FSunny.24 mph13%29.86 "Hg10 mi
4:50 PM99 °FSunny.22 mph14%29.86 "Hg10 mi
3:50 PM97 °FSunny.20 mph14%29.86 "Hg10 mi
2:50 PM97 °FSunny.22 mph16%29.89 "Hg10 mi
1:50 PM95 °FSunny.21 mph18%29.92 "Hg10 mi
12:50 PM93 °FSunny.21 mph19%29.92 "Hg10 mi
11:50 AM90 °FSunny.20 mph22%29.95 "Hg10 mi
10:50 AM88 °FSunny.22 mph24%29.95 "Hg10 mi
9:50 AM84 °FSunny.24 mph27%29.95 "Hg10 mi
8:50 AM82 °FSunny.20 mph32%29.98 "Hg10 mi
7:50 AM79 °FSunny.16 mph39%29.98 "Hg10 mi
6:50 AM73 °FSunny.12 mph44%29.95 "Hg10 mi
5:50 AM72 °FClear.10 mph47%29.95 "Hg10 mi
Weather by CustomWeather, © 2016

See weather overviewHow to use our weather pages